TimeEST,TemperatureF,Dew PointF,Humidity,Sea Level PressureIn,VisibilityMPH,Wind Direction,Wind SpeedMPH,Gust SpeedMPH,PrecipitationIn,Events,Conditions,WindDirDegrees,DateUTC
12:53 AM,73.0,66.9,81,29.94,10.0,SE,9.2,-,0.00,,Scattered Clouds,130,2012-12-07 05:53:00
1:53 AM,72.0,66.9,84,29.93,10.0,SSE,5.8,-,N/A,,Partly Cloudy,160,2012-12-07 06:53:00
2:53 AM,73.0,66.9,81,29.91,10.0,SSE,6.9,-,N/A,,Scattered Clouds,150,2012-12-07 07:53:00
3:53 AM,73.0,66.9,81,29.91,10.0,SSE,5.8,-,N/A,,Mostly Cloudy,150,2012-12-07 08:53:00
4:42 AM,71.6,66.2,83,29.91,10.0,Calm,Calm,-,N/A,,Mostly Cloudy,0,2012-12-07 09:42:00
4:53 AM,72.0,66.0,81,29.91,10.0,Variable,4.6,-,N/A,,Mostly Cloudy,0,2012-12-07 09:53:00
5:02 AM,73.4,66.2,78,29.92,10.0,SE,9.2,-,0.00,Rain,Light Rain,130,2012-12-07 10:02:00
5:53 AM,73.0,66.9,81,29.94,10.0,SE,8.1,-,0.00,,Mostly Cloudy,140,2012-12-07 10:53:00
6:00 AM,73.4,66.2,78,29.94,10.0,SE,5.8,-,N/A,,Mostly Cloudy,130,2012-12-07 11:00:00
6:16 AM,73.4,66.2,78,29.94,10.0,SE,10.4,-,N/A,,Mostly Cloudy,140,2012-12-07 11:16:00
6:53 AM,73.0,66.0,79,29.94,10.0,SE,9.2,-,N/A,,Partly Cloudy,140,2012-12-07 11:53:00
7:53 AM,75.0,64.9,71,29.95,10.0,SSE,8.1,-,N/A,,Partly Cloudy,150,2012-12-07 12:53:00
8:53 AM,75.9,66.9,74,29.97,10.0,SSE,8.1,-,N/A,,Scattered Clouds,150,2012-12-07 13:53:00
9:53 AM,78.1,66.9,68,29.98,10.0,SE,13.8,-,N/A,,Scattered Clouds,140,2012-12-07 14:53:00
10:53 AM,79.0,66.9,66,29.98,10.0,SSE,8.1,-,N/A,,Partly Cloudy,150,2012-12-07 15:53:00
11:53 AM,79.0,66.0,64,29.97,10.0,SSE,9.2,-,N/A,,Scattered Clouds,160,2012-12-07 16:53:00
12:53 PM,79.0,66.0,64,29.94,10.0,SE,10.4,-,N/A,,Scattered Clouds,140,2012-12-07 17:53:00
1:53 PM,78.1,66.9,68,29.91,10.0,SE,10.4,-,N/A,,Scattered Clouds,130,2012-12-07 18:53:00
2:53 PM,78.1,66.9,68,29.91,10.0,SE,10.4,-,N/A,,Partly Cloudy,140,2012-12-07 19:53:00
3:53 PM,78.1,66.9,68,29.91,10.0,SE,10.4,-,N/A,,Scattered Clouds,140,2012-12-07 20:53:00
4:53 PM,75.9,66.9,74,29.92,10.0,SE,8.1,-,N/A,,Partly Cloudy,140,2012-12-07 21:53:00
5:53 PM,75.0,68.0,79,29.93,10.0,SE,5.8,-,N/A,,Partly Cloudy,140,2012-12-07 22:53:00
6:53 PM,73.9,68.0,82,29.95,10.0,SE,3.5,-,N/A,,Partly Cloudy,130,2012-12-07 23:53:00
7:53 PM,75.0,68.0,79,29.96,10.0,SE,9.2,-,N/A,,Scattered Clouds,130,2012-12-08 00:53:00
8:53 PM,73.9,68.0,82,29.97,10.0,SE,6.9,-,N/A,,Partly Cloudy,140,2012-12-08 01:53:00
9:53 PM,73.0,66.9,81,29.98,10.0,SE,5.8,-,N/A,,Partly Cloudy,130,2012-12-08 02:53:00
10:53 PM,73.0,64.9,76,29.99,10.0,SE,5.8,-,N/A,,Partly Cloudy,130,2012-12-08 03:53:00
11:53 PM,73.0,66.0,79,29.98,10.0,ESE,5.8,-,N/A,,Scattered Clouds,110,2012-12-08 04:53:00